TJS-6 (47613 NORAD) Tracking and Keplerian Element Data

This shows tracking and keplerian element data for the satellite.

Feedback or suggestion? Click here.




ElementValue
Catalog47613
NameTJS-6
Epoch Orbit43
Epoch Day59.70748774
Epoch Year2021
RAAN282.4742
Inclination0.9786
Eccentricity0.0002561
Argument of Perigee54.7486
Mean Anonmoly254.7583
Mean Motion1.00271583
Decay Rate3.5E-07
L11 47613U 21010A 21059.70748774 .00000035 00000-0 00000-0 0 9994
L22 47613 0.9786 282.4742 0002561 54.7486 254.7583 1.00271583 438

Live tracking and technical data element details for TJS-6 (NORAD 47613). TJS-6 can be tracked NOW for your location showing map with azimuth and elevation plus other details from your city location.

Track the satellite on the map from your city or location and see movement details for azimuth, elevation, latitude, longitude, range, height, and movement on the map or in text.







IsCatalogInMostPopularTable: catalog: 47613, numindb: 5
Update: records affected: 1



GetName: 47613 TJS-6

Hit Count: updated at: Mon, 01 Mar 2021 16:25:49 GMT